Total_Precipitation_Accumulation
0.86 0.98 1.06 1.07 1.13 1.22 1.31 1.37 1.42 1.37 1.33 1.26 1.05 0.99 0.96 0.94 0.98 0.91 0.96 0.77 0.52 0.43 0.42 0.43 0.44 0.49 0.60 0.78 0.95 1.11 1.33 1.49 1.60 1.70 1.78 1.90 2.02 2.14
0.98 1.11 1.12 1.09 1.11 1.19 1.32 1.48 1.58 1.56 1.40 1.16 1.05 1.08 1.10 1.00 0.94 0.81 0.77 0.74 0.55 0.43 0.39 0.39 0.39 0.42 0.46 0.60 0.75 0.88 1.04 1.16 1.29 1.41 1.48 1.53 1.59 1.73
0.91 1.02 1.08 1.09 1.12 1.16 1.26 1.35 1.50 1.62 1.48 1.25 1.20 1.26 1.31 1.27 1.10 0.91 0.77 0.71 0.60 0.48 0.39 0.37 0.38 0.42 0.48 0.55 0.66 0.77 0.85 0.92 1.04 1.17 1.29 1.38 1.44 1.49
0.94 0.95 0.91 0.96 1.07 1.08 1.14 1.17 1.28 1.49 1.45 1.34 1.36 1.40 1.43 1.36 1.27 1.09 0.89 0.79 0.73 0.58 0.43 0.37 0.37 0.38 0.42 0.42 0.50 0.65 0.77 0.84 0.87 0.90 0.97 1.09 1.23 1.34
0.86 0.85 0.81 0.82 0.87 0.95 1.05 1.02 1.05 1.17 1.31 1.37 1.45 1.53 1.61 1.50 1.32 1.19 1.06 0.96 0.76 0.65 0.54 0.44 0.41 0.39 0.39 0.39 0.43 0.51 0.64 0.77 0.85 0.90 0.92 0.98 1.04 1.13
0.77 0.72 0.72 0.76 0.78 0.84 0.93 0.96 0.98 1.07 1.20 1.28 1.43 1.63 1.66 1.70 1.59 1.37 1.25 1.18 0.93 0.68 0.63 0.56 0.49 0.44 0.40 0.36 0.38 0.44 0.54 0.69 0.85 0.93 0.99 1.08 1.14 1.15
0.78 0.70 0.66 0.64 0.66 0.71 0.71 0.78 0.87 0.97 0.99 1.08 1.22 1.45 1.58 1.70 1.66 1.47 1.32 1.33 1.19 0.89 0.75 0.68 0.65 0.58 0.52 0.45 0.37 0.36 0.45 0.59 0.78 0.94 1.02 1.13 1.25 1.31
0.73 0.70 0.62 0.54 0.55 0.54 0.51 0.56 0.65 0.72 0.81 0.96 1.02 1.21 1.42 1.53 1.66 1.73 1.59 1.44 1.37 1.20 1.12 1.02 0.88 0.81 0.68 0.55 0.46 0.36 0.35 0.45 0.57 0.73 0.87 1.01 1.13 1.29
0.70 0.70 0.55 0.47 0.55 0.55 0.53 0.48 0.48 0.50 0.58 0.77 0.90 0.98 1.21 1.42 1.62 1.78 1.78 1.70 1.58 1.49 1.44 1.37 1.14 0.97 0.82 0.70 0.61 0.47 0.39 0.35 0.39 0.48 0.58 0.73 0.85 0.97
0.64 0.70 0.71 0.66 0.64 0.67 0.67 0.60 0.53 0.50 0.53 0.58 0.65 0.80 1.06 1.44 1.65 1.71 1.82 1.85 1.79 1.71 1.66 1.61 1.43 1.24 1.07 0.94 0.84 0.64 0.52 0.44 0.40 0.40 0.43 0.49 0.61 0.73
0.67 0.70 0.72 0.68 0.66 0.57 0.57 0.56 0.55 0.55 0.50 0.52 0.55 0.64 0.81 1.08 1.48 1.62 1.66 1.62 1.56 1.39 1.28 1.32 1.34 1.33 1.29 1.19 1.04 0.90 0.73 0.60 0.53 0.52 0.50 0.50 0.56 0.66
0.78 0.77 0.70 0.63 0.59 0.53 0.55 0.61 0.57 0.54 0.59 0.60 0.59 0.57 0.60 0.75 1.05 1.29 1.36 1.35 1.25 1.22 1.01 0.98 1.00 1.07 1.18 1.10 1.00 0.94 0.89 0.87 0.78 0.66 0.60 0.57 0.66 0.64
0.87 0.87 0.80 0.70 0.58 0.55 0.56 0.62 0.63 0.63 0.72 0.75 0.73 0.71 0.73 0.76 0.84 1.01 1.20 1.27 1.19 1.00 0.90 0.91 0.90 0.90 0.90 0.87 0.86 0.83 0.86 0.91 0.89 0.85 0.79 0.77 0.80 0.78
0.97 0.96 0.96 0.78 0.61 0.57 0.54 0.53 0.55 0.54 0.61 0.70 0.69 0.66 0.67 0.67 0.71 0.85 1.04 1.16 1.22 1.07 0.97 1.01 1.00 0.92 0.86 0.76 0.72 0.69 0.71 0.83 0.96 1.06 1.03 1.01 0.99 1.05
0.97 0.96 0.89 0.76 0.62 0.54 0.55 0.54 0.51 0.50 0.57 0.64 0.64 0.56 0.53 0.58 0.70 0.85 1.00 1.13 1.17 1.11 1.00 0.99 1.01 0.98 0.93 0.81 0.68 0.64 0.67 0.74 0.83 1.01 1.19 1.24 1.19 1.18
0.96 0.92 0.81 0.76 0.66 0.61 0.62 0.57 0.52 0.58 0.64 0.65 0.67 0.68 0.67 0.71 0.76 0.82 0.92 1.02 1.08 1.03 0.96 0.96 1.03 1.08 1.00 0.84 0.79 0.72 0.69 0.71 0.70 0.80 1.05 1.29 1.48 1.55
1.18 1.14 1.06 0.97 0.86 0.78 0.78 0.79 0.79 0.83 0.79 0.78 0.83 0.89 0.87 0.81 0.79 0.83 0.96 1.00 0.96 0.90 0.90 0.95 1.03 1.14 1.12 0.96 0.86 0.78 0.76 0.71 0.64 0.67 0.82 1.00 1.22 1.46
1.11 1.08 1.06 1.00 0.93 0.92 0.96 0.96 0.94 0.94 0.91 0.92 0.95 0.99 1.00 0.93 0.86 0.86 0.96 1.01 0.95 0.89 0.87 0.90 1.05 1.20 1.22 1.08 0.78 0.66 0.66 0.65 0.65 0.76 0.84 0.83 0.88 0.99
1.10 1.11 1.09 1.08 1.03 1.02 1.03 1.03 0.99 0.99 1.04 1.07 1.08 1.09 1.14 1.14 1.10 1.03 1.01 1.05 1.03 0.99 0.93 0.93 1.00 1.05 0.97 0.81 0.71 0.55 0.56 0.60 0.70 0.80 0.87 0.79 0.71 0.75
1.08 1.12 1.12 1.11 1.10 1.07 1.03 1.05 1.06 1.09 1.10 1.09 1.11 1.14 1.20 1.21 1.22 1.14 1.06 1.02 1.04 1.06 1.05 0.98 0.90 0.86 0.82 0.75 0.70 0.67 0.59 0.65 0.72 0.75 0.80 0.81 0.76 0.72
1.05 1.04 1.01 0.96 0.95 0.97 0.97 0.96 0.96 0.97 1.00 1.06 1.06 1.06 1.12 1.11 1.07 1.03 1.03 1.02 1.02 1.07 1.00 0.82 0.78 0.86 1.02 1.12 0.93 0.69 0.65 0.66 0.78 0.86 0.91 0.96 0.90 0.86
0.99 0.94 0.92 0.88 0.88 0.90 0.92 0.91 0.91 0.93 0.97 1.06 1.07 1.05 1.06 1.04 0.98 0.98 1.02 1.04 1.01 1.00 1.01 0.97 1.07 1.15 1.16 1.10 0.91 0.76 0.77 0.85 0.91 0.97 0.97 0.90 0.82 0.75
0.93 0.89 0.88 0.83 0.81 0.82 0.83 0.85 0.89 0.94 0.97 1.03 1.06 1.08 1.10 1.06 1.00 1.00 1.03 1.08 1.08 1.10 1.23 1.26 1.21 1.17 1.09 1.07 1.03 0.95 0.91 1.00 1.11 1.14 1.06 0.91 0.67 0.52